Regional Weather Roundup
Issued by NWS

Home | Current Version | Previous Version | Graphics & Text | Print | Product List | Glossary On
Versions: 1 2 3 4 5 6 7 8 9 10 11 12 13 14 15 16 17 18 19 20 21 22 23 24 25 26 27 28 29 30 31 32 33 34 35 36 37 38 39 40 41 42 43 44 45 46 47 48 49 50
000
ASUS43 KIND 250109
RWRIN

WEATHER ROUNDUP FOR INDIANA
NATIONAL WEATHER SERVICE INDIANAPOLIS IN
900 PM EDT SUN JUL 24 2016

NOTE: "FAIR" INDICATES FEW OR NO CLOUDS BELOW 12,000 FEET WITH NO
SIGNIFICANT WEATHER AND/OR OBSTRUCTIONS TO VISIBILITY.

* - STATION DOES NOT REPORT WEATHER SUCH AS PRECIPITATION OR FOG.

+ - STATION NOT QUALITY CONTROLLED BY THE NATIONAL WEATHER SERVICE.
    USE DATA WITH CAUTION...ESPECIALLY DEWPOINT AND RELATIVE
    HUMIDITY OBSERVATIONS.

INZ001>003-010>013-019-020-250200-
NORTHWEST INDIANA

CITY           SKY/WX    TMP DP  RH WIND       PRES   REMARKS
GARY /AIRPORT/ MOCLDY    90 N/A N/A MISG      29.90R
KNOX *+        CLEAR     82  72  69 SW6       29.90R
LA PORTE +     PTCLDY    85  82  89 SW12      29.90S HX 102
MICHIGAN CITY+ CLOUDY    82  70  65 SW18G36   29.89R
MONTICELLO +   CLEAR     85  74  71 SW6       29.91R
RENSSELAER +   CLEAR     82  79  89 SW3       29.91F
VALPARAISO     MOCLDY    79  59  50 NW26G41   29.96R

$$

LMZ046-743>745-250200-
SOUTHERN LAKE MICHIGAN

STATION/POSITION TIME  TEMP    WIND        PRES    WAVE
                       AIR SEA DIR/SP/G            HT
                 (UTC) (F)     (DEG/KT/KT) (MB)    (FT)
BURNS HARBOR     0030   80     280/ 36     1012.9R
MICHIGAN CITY    0000   86     180/ 10/ 11   N/A
5NW MICH CITY    0100   75 74  260/ 23/ 33   N/A     2

$$

INZ004-005-014>016-021>024-250200-
NORTH CENTRAL INDIANA

CITY           SKY/WX    TMP DP  RH WIND       PRES   REMARKS
GOSHEN         CLEAR     84  76  76 SW8       29.90R
LOGANSPORT +   CLEAR     81  77  89 SW6       29.93R
PERU/GRISSOM   CLEAR     83  76  79 SW8       29.91S
ROCHESTER +    CLEAR     86  79  79 SW6       29.92R HX  99
SOUTH BEND     CLEAR     84  77  79 SW8       29.89S
WARSAW +       CLEAR     84  77  79 CALM      29.91R

$$

INZ006>009-017-018-025>027-250200-
NORTHEAST INDIANA

CITY           SKY/WX    TMP DP  RH WIND       PRES   REMARKS
ANGOLA *+        N/A     84  79  84 SW8       29.91R HX  96
AUBURN +       PTCLDY    86  73  66 CALM      29.92R
FORT WAYNE     MOCLDY    84  75  74 S7        29.92S
HUNTINGTON +   PTCLDY   N/A N/A N/A SW6       29.92S

$$

INZ028-029-035-036-043>045-051>053-250200-
WEST CENTRAL INDIANA

CITY           SKY/WX    TMP DP  RH WIND       PRES   REMARKS
CRAWFORDSVL +  PTCLDY    81  78  91 S5        29.94S
GREENCASTLE +  CLOUDY    82  79  89 S5        29.95R
LAFAYETTE      CLEAR     84  78  82 SW6       29.91R HX  95
TERRE HAUTE    CLOUDY    86  77  74 S7        29.93S HX  97

$$

INZ030>032-037>040-046>048-054>057-064-065-250200-
CENTRAL INDIANA

CITY           SKY/WX    TMP DP  RH WIND       PRES   REMARKS
COLUMBUS       CLEAR     84  79  84 S6        29.95F HX  96
FRANKFORT +    CLEAR     85  80  84 SW3       29.96R HX  98
INDIANAPOLIS   MOCLDY    85  75  72 SW10      29.94F
-EAGLE CREEK   PTCLDY    87  75  67 SW6       29.94S HX  96
KOKOMO *+      CLEAR     84  73  70 SW7       29.93S
MARION +       PTCLDY    83  74  74 W3        29.95R
MT COMFORT *+  PTCLDY    82  75  78 S6        29.95S
SHELBYVILLE    CLEAR     84  77  79 S5        29.94F
ZIONSVILLE +   PTCLDY    83  75  78 SW8       29.96R

$$

INZ033-034-041-042-049-050-058-059-250200-
EAST CENTRAL INDIANA

CITY           SKY/WX    TMP DP  RH WIND       PRES   REMARKS
MUNCIE         CLEAR     88  76  67 SW6       29.94F HX  99

$$

INZ060-061-067>069-081>083-085>088-250200-
SOUTHWEST INDIANA

CITY           SKY/WX    TMP DP  RH WIND       PRES   REMARKS
EVANSVILLE     CLEAR     87  76  69 S5        29.95S HX  97
HUNTINGBURG *+ CLEAR     86  75  70 S3        29.96F HX  95
WASHINGTON +   CLEAR     83  83 100 MISG      29.95S HX 102

$$

INZ062-063-066-070>080-084-089>092-250200-
SOUTH CENTRAL AND SOUTHEAST INDIANA

CITY           SKY/WX    TMP DP  RH WIND       PRES   REMARKS
BLOOMINGTON    CLEAR     84  76  76 S7        29.95F
MADISON *+     CLEAR     82  77  83 CALM      29.99F

$$





USA.gov is the U.S. government's official web portal to all federal, state and local government web resources and services.